Colby, KS

6:13 PM CST on February 19, 2017 (GMT -0600)
Shaltz

Weather History for KCBK - March, 2014

Change the Weather History Date:

Tuesday, March 11, 2014

  Actual Average (KGLD) Record (KGLD)
Temperature  
Mean Temperature 42 °F -  
Max Temperature 50 °F 51 °F 82 °F (1972)
Min Temperature 33 °F 27 °F -20 °F (1948)
Degree Days  
Heating Degree Days 24    
Moisture  
Dew Point 33 °F    
Average Humidity 76    
Maximum Humidity 100    
Minimum Humidity 40    
Precipitation  
Precipitation 0.00 in - - ()
Sea Level Pressure  
Sea Level Pressure 29.80 in    
Wind  
Wind Speed 16 mph (NNW)    
Max Wind Speed 36 mph    
Max Gust Speed 46 mph    
Visibility 10 miles    
Events Rain , Snow    
Averages and records for this station are not official NWS values.
T = Trace of Precipitation, MM = Missing Value Source: NWS Daily Summary

Daily Weather History Graph

Daily Weather History Graph

Search for Another Location

Airport or City:

Trip Planner

Search our weather history database for the weather conditions in past years. The results will help you decide how hot, cold, wet, or windy it might be!

Date:

Astronomy

Mar. 11, 2014 Rise Set
Actual Time 8:01 AM CDT 7:47 PM CDT
Civil Twilight 7:35 AM CDT 8:13 PM CDT
Nautical Twilight 7:03 AM CDT 8:45 PM CDT
Astronomical Twilight 6:32 AM CDT 9:16 PM CDT
Moon 3:26 PM CDT (3/11) 4:55 AM CDT (3/11)
Length of Visible Light 12h 38m
Length of Day
11h 45m
Waxing Gibbous, 78% of the Moon is Illuminated
Mar 11
Waxing Gibbous
Mar 16
Full
Mar 23
Last Quarter
Mar 30
New
Apr 7
First Quarter

Hourly Weather History & Observations

Time (CDT) Temp. Windchill Dew Point Humidity Pressure Visibility Wind Dir Wind Speed Gust Speed Precip Events Conditions
12:10 AM 50.0 °F - 26.6 °F 40% 29.59 in 10.0 mi SE 8.1 mph - N/A   Clear
12:30 AM 50.0 °F - 26.6 °F 40% 29.58 in 10.0 mi SSE 5.8 mph - N/A   Clear
12:50 AM 48.2 °F - 26.6 °F 43% 29.57 in 10.0 mi SSE 6.9 mph - N/A   Clear
1:10 AM 48.2 °F - 26.6 °F 43% 29.56 in 10.0 mi South 9.2 mph - N/A   Clear
1:30 AM 46.4 °F 45.2 °F 26.6 °F 46% 29.54 in 10.0 mi South 3.5 mph - N/A   Clear
1:50 AM 42.8 °F 41.1 °F 24.8 °F 49% 29.52 in 10.0 mi SSE 3.5 mph - N/A   Clear
2:10 AM 41.0 °F - 24.8 °F 53% 29.52 in 10.0 mi Calm Calm - N/A   Clear
2:30 AM 42.8 °F 40.1 °F 24.8 °F 49% 29.51 in 10.0 mi South 4.6 mph - N/A   Clear
2:50 AM 42.8 °F 37.5 °F 24.8 °F 49% 29.49 in 10.0 mi SSW 9.2 mph - N/A   Clear
3:10 AM 42.8 °F 37.5 °F 23.0 °F 46% 29.49 in 10.0 mi SSW 9.2 mph - N/A   Clear
3:30 AM 37.4 °F 30.8 °F 23.0 °F 56% 29.48 in 10.0 mi SW 9.2 mph - N/A   Clear
3:50 AM 42.8 °F 37.5 °F 24.8 °F 49% 29.47 in 10.0 mi SW 9.2 mph - N/A   Clear
4:10 AM 42.8 °F 38.0 °F 24.8 °F 49% 29.47 in 10.0 mi WSW 8.1 mph - N/A   Clear
4:30 AM 44.6 °F 39.7 °F 24.8 °F 46% 29.47 in 10.0 mi SW 9.2 mph - N/A   Clear
4:50 AM 48.2 °F - 26.6 °F 43% 29.47 in 10.0 mi West 15.0 mph - N/A   Clear
5:10 AM 46.4 °F 39.8 °F 26.6 °F 46% 29.47 in 10.0 mi WNW 16.1 mph - N/A   Clear
5:30 AM 46.4 °F 39.8 °F 28.4 °F 50% 29.48 in 10.0 mi WNW 16.1 mph - N/A   Clear
5:50 AM 44.6 °F 37.4 °F 28.4 °F 53% 29.48 in 10.0 mi NW 16.1 mph - N/A   Clear
6:10 AM 44.6 °F 36.4 °F 30.2 °F 57% 29.48 in 10.0 mi NW 20.7 mph - N/A   Clear
6:30 AM 48.2 °F - 32.0 °F 54% 29.50 in 10.0 mi NNW 20.7 mph 26.5 mph N/A   Clear
6:50 AM 48.2 °F - 32.0 °F 54% 29.52 in 10.0 mi NNW 19.6 mph 27.6 mph N/A   Clear
7:10 AM 48.2 °F - 33.8 °F 58% 29.54 in 10.0 mi NNW 18.4 mph - N/A   Clear
7:30 AM 46.4 °F 39.5 °F 33.8 °F 62% 29.55 in 10.0 mi NNW 17.3 mph - N/A   Clear
7:50 AM 46.4 °F 39.0 °F 35.6 °F 66% 29.57 in 10.0 mi NW 19.6 mph 26.5 mph N/A   Clear
8:10 AM 48.2 °F - 35.6 °F 62% 29.58 in 10.0 mi NW 19.6 mph 25.3 mph N/A   Clear
8:30 AM 48.2 °F - 37.4 °F 66% 29.59 in 10.0 mi NNW 20.7 mph 24.2 mph N/A   Clear
8:50 AM 46.4 °F 37.5 °F 37.4 °F 71% 29.60 in 10.0 mi NNW 27.6 mph 33.4 mph N/A   Clear
9:10 AM 44.6 °F 35.5 °F 39.2 °F 81% 29.62 in 10.0 mi NNW 25.3 mph 33.4 mph N/A   Clear
9:30 AM 42.8 °F 32.7 °F 39.2 °F 87% 29.63 in 10.0 mi NNW 27.6 mph 38.0 mph N/A   Clear
9:50 AM 44.6 °F 35.1 °F 41.0 °F 87% 29.66 in 10.0 mi NNW 27.6 mph 38.0 mph N/A   Mostly Cloudy
10:10 AM 42.8 °F 31.9 °F 39.2 °F 87% 29.68 in 10.0 mi North 32.2 mph 38.0 mph N/A   Overcast
10:30 AM 42.8 °F 32.1 °F 37.4 °F 81% 29.69 in 10.0 mi North 31.1 mph 39.1 mph N/A   Overcast
10:50 AM 42.8 °F 32.5 °F 37.4 °F 81% 29.72 in 10.0 mi NNW 28.8 mph 38.0 mph N/A   Overcast
11:10 AM 41.0 °F 30.2 °F 35.6 °F 81% 29.74 in 10.0 mi North 27.6 mph 40.3 mph N/A   Overcast
11:30 AM 41.0 °F 29.5 °F 35.6 °F 81% 29.76 in 10.0 mi NNW 32.2 mph 41.4 mph N/A   Overcast
11:50 AM 39.2 °F 26.8 °F 35.6 °F 87% 29.78 in 10.0 mi North 33.4 mph 40.3 mph N/A   Overcast
12:10 PM 37.4 °F 25.0 °F 35.6 °F 93% 29.79 in 10.0 mi North 29.9 mph 40.3 mph N/A   Overcast
12:30 PM 37.4 °F 24.0 °F 33.8 °F 87% 29.80 in 10.0 mi North 35.7 mph 42.6 mph N/A   Overcast
12:50 PM 37.4 °F 25.2 °F 33.8 °F 87% 29.81 in 10.0 mi North 28.8 mph 43.7 mph N/A   Overcast
1:10 PM 37.4 °F 24.6 °F 33.8 °F 87% 29.82 in 10.0 mi North 32.2 mph 41.4 mph N/A   Overcast
1:30 PM 39.2 °F 27.4 °F 33.8 °F 81% 29.84 in 10.0 mi North 29.9 mph 42.6 mph N/A   Overcast
1:50 PM 41.0 °F 29.7 °F 33.8 °F 76% 29.85 in 10.0 mi North 31.1 mph 41.4 mph N/A   Overcast
2:10 PM 41.0 °F 29.7 °F 33.8 °F 76% 29.86 in 10.0 mi North 31.1 mph 46.0 mph N/A   Overcast
2:30 PM 41.0 °F 30.5 °F 33.8 °F 76% 29.88 in 10.0 mi North 26.5 mph 36.8 mph N/A   Overcast
2:50 PM 41.0 °F 30.2 °F 33.8 °F 76% 29.89 in 10.0 mi North 27.6 mph 35.7 mph N/A   Overcast
3:10 PM 41.0 °F 30.2 °F 33.8 °F 76% 29.91 in 10.0 mi NNW 27.6 mph 36.8 mph N/A   Overcast
3:30 PM 37.4 °F 25.0 °F 35.6 °F 93% 29.92 in 10.0 mi North 29.9 mph 38.0 mph N/A   Drizzle
3:50 PM 37.4 °F 25.6 °F 35.6 °F 93% 29.95 in 10.0 mi NNW 26.5 mph 36.8 mph N/A   Overcast
4:10 PM 35.6 °F 23.0 °F 35.6 °F 100% 29.97 in 5.0 mi NNW 27.6 mph 42.6 mph N/A Rain Light Rain
4:30 PM 35.6 °F 24.5 °F 35.6 °F 100% 29.98 in 4.0 mi NNW 20.7 mph 33.4 mph N/A Snow Light Snow
4:50 PM 33.8 °F 21.6 °F 33.8 °F 100% 30.00 in 2.5 mi NNW 23.0 mph 35.7 mph N/A Snow Light Snow
5:10 PM 33.8 °F 21.3 °F 33.8 °F 100% 30.00 in 1.5 mi NNW 24.2 mph 31.1 mph N/A Snow Light Snow
5:30 PM 35.6 °F 22.7 °F 35.6 °F 100% 30.02 in 5.0 mi North 28.8 mph 34.5 mph N/A Snow Light Snow
5:50 PM 35.6 °F 23.4 °F 35.6 °F 100% 30.04 in 10.0 mi North 25.3 mph 36.8 mph N/A Rain Light Rain
6:10 PM 35.6 °F 23.0 °F 35.6 °F 100% 30.05 in 7.0 mi North 27.6 mph 41.4 mph N/A   Light Drizzle
6:30 PM 35.6 °F 23.2 °F 35.6 °F 100% 30.07 in 10.0 mi North 26.5 mph 35.7 mph N/A Rain Light Rain
6:50 PM 35.6 °F 24.2 °F 35.6 °F 100% 30.09 in 10.0 mi North 21.9 mph 34.5 mph N/A Rain Light Rain
7:10 PM 35.6 °F 24.8 °F 35.6 °F 100% 30.10 in 10.0 mi North 19.6 mph 28.8 mph N/A   Light Drizzle
7:30 PM 35.6 °F 25.2 °F 35.6 °F 100% 30.11 in 10.0 mi North 18.4 mph 28.8 mph N/A   Overcast
7:50 PM 35.6 °F 25.9 °F 35.6 °F 100% 30.12 in 10.0 mi North 16.1 mph 20.7 mph N/A   Mostly Cloudy
8:10 PM 35.6 °F 27.1 °F 35.6 °F 100% 30.16 in 10.0 mi NW 12.7 mph - N/A   Overcast
8:30 PM 35.6 °F 26.6 °F 35.6 °F 100% 30.17 in 10.0 mi NW 13.8 mph 18.4 mph N/A   Overcast
8:50 PM 35.6 °F 25.5 °F 35.6 °F 100% 30.17 in 10.0 mi NNW 17.3 mph 23.0 mph N/A   Overcast
9:10 PM 35.6 °F 25.5 °F 33.8 °F 93% 30.18 in 10.0 mi NNW 17.3 mph 23.0 mph N/A   Mostly Cloudy
9:30 PM 35.6 °F 25.5 °F 33.8 °F 93% 30.18 in 10.0 mi NNW 17.3 mph 20.7 mph N/A   Mostly Cloudy
9:50 PM 35.6 °F 25.5 °F 33.8 °F 93% 30.20 in 10.0 mi NNW 17.3 mph 24.2 mph N/A   Mostly Cloudy
10:10 PM 33.8 °F 23.5 °F 32.0 °F 93% 30.21 in 10.0 mi NNW 16.1 mph 24.2 mph N/A   Scattered Clouds
10:30 PM 33.8 °F 23.9 °F 32.0 °F 93% 30.23 in 10.0 mi NNW 15.0 mph - N/A   Clear
10:50 PM 33.8 °F 24.3 °F 32.0 °F 93% 30.24 in 10.0 mi NNW 13.8 mph - N/A   Scattered Clouds
11:10 PM 33.8 °F 24.3 °F 32.0 °F 93% 30.24 in 10.0 mi NNW 13.8 mph - N/A   Scattered Clouds
11:30 PM 33.8 °F 24.8 °F 32.0 °F 93% 30.25 in 10.0 mi NW 12.7 mph - N/A   Clear
11:50 PM 33.8 °F 24.8 °F 32.0 °F 93% 30.25 in 10.0 mi NNW 12.7 mph - N/A   Clear